Theta_e
317 317 317 318 317 319 320 320 321 320 320 320 319 321 321 318 318 320 322 324 326 327 328 327 326 325 324 323 320 319 319 319 318 317 315 314 312 311 308 305 301 298 297 296
320 318 318 318 318 317 318 318 318 320 321 320 320 320 318 317 319 321 321 321 320 320 319 318 319 320 319 318 316 316 315 314 313 312 310 308 306 302 300 298 297 297 296 296
320 320 320 321 320 319 319 319 319 321 322 320 320 319 319 319 319 318 316 315 315 315 315 315 315 315 315 313 313 312 311 310 309 308 306 304 302 299 297 296 296 295 296 297
322 321 332 320 319 320 319 319 320 320 320 319 319 319 317 318 317 314 313 312 312 311 311 310 310 310 310 309 308 308 307 306 306 305 303 301 300 298 296 296 296 297 297 296
331 324 321 319 318 320 321 321 321 321 320 319 317 316 315 314 314 312 311 310 309 308 308 307 307 307 306 306 305 304 304 303 303 302 302 301 300 300 299 298 298 298 297 297
322 325 330 321 320 319 319 322 320 319 319 318 317 321 319 311 309 308 307 307 306 306 305 305 305 305 305 304 303 303 302 302 301 301 301 301 300 300 299 299 299 298 297 297
326 328 323 321 318 317 322 323 321 320 319 319 319 319 315 309 308 306 305 304 304 304 304 304 304 304 303 302 302 301 301 300 300 300 300 299 299 297 297 296 296 295 295 294
326 330 329 318 316 322 323 322 320 320 319 319 317 313 310 308 306 305 304 303 303 303 303 302 303 303 302 301 300 300 299 298 297 296 295 295 295 294 293 293 293 293 293 293
325 324 323 318 321 320 320 320 319 319 318 318 313 311 309 307 306 305 303 303 302 302 301 301 300 300 299 298 297 296 294 293 293 292 292 292 293 293 293 292 292 292 291 290
322 322 321 320 319 317 316 318 316 317 317 314 313 310 308 306 305 304 302 302 300 299 298 296 296 295 295 294 293 293 292 292 291 290 290 289 289 288 288 287 287 286 286 286
323 321 317 319 319 319 316 315 314 316 315 314 311 309 307 305 304 303 301 299 298 297 296 294 293 293 292 292 291 291 290 288 288 287 286 286 285 284 283 283 281 282 282 282
326 322 322 322 321 318 316 315 315 315 313 312 310 308 306 304 302 301 299 297 296 295 293 292 290 290 289 289 289 288 287 286 284 285 284 284 283 283 281 280 278 278 278 278
320 317 319 314 315 317 315 315 313 313 312 310 308 306 304 303 300 298 297 296 294 292 290 289 288 287 285 285 284 284 284 283 283 283 282 282 282 282 282 281 279 278 277 276
314 313 315 312 315 311 312 311 309 310 308 307 305 303 302 300 297 297 296 294 291 289 287 286 285 284 283 282 282 282 281 280 282 281 281 280 280 280 280 279 279 279 277 275
312 310 310 311 309 308 307 306 306 306 304 303 302 301 299 297 297 295 292 290 289 287 286 284 283 282 281 281 280 280 280 279 279 279 278 277 278 278 278 278 277 277 276 276
308 308 307 308 307 305 305 305 305 303 302 301 300 298 297 296 293 291 289 287 286 285 284 281 281 280 280 280 279 279 277 275 276 277 277 277 276 276 276 276 276 275 275 274
308 307 306 305 304 303 303 302 302 301 300 299 297 296 294 291 289 287 285 282 281 280 280 280 279 278 278 278 278 277 277 276 274 276 275 275 274 275 274 274 274 273 273 272
307 307 306 305 304 302 301 300 299 298 297 294 290 288 287 286 284 282 280 279 279 278 278 277 277 276 276 275 276 275 274 274 274 273 273 273 272 272 272 272 272 272 272 271
304 303 302 302 301 300 299 295 293 291 289 289 288 286 285 284 283 281 279 279 279 278 276 275 275 275 274 273 273 273 273 273 272 272 271 270 271 271 270 270 270 270 270 270
296 297 294 293 292 291 290 288 288 287 287 286 286 284 282 282 281 280 281 281 280 278 275 274 273 273 272 271 271 271 271 271 271 270 270 269 269 269 269 268 268 268 268 268
292 291 290 289 289 288 288 288 288 288 287 287 286 284 281 280 280 279 279 278 276 275 274 273 273 273 272 271 271 271 270 270 270 269 269 268 268 268 268 268 267 267 267 267
289 288 288 288 287 287 286 286 285 284 283 282 281 280 280 279 278 278 278 278 276 275 274 274 272 271 270 270 270 270 269 269 268 268 268 267 267 267 267 266 266 266 265 266
287 286 286 285 285 284 283 282 282 282 281 281 281 281 280 279 279 279 278 275 275 273 273 273 270 270 269 270 270 269 269 268 267 267 267 266 266 265 265 265 264 263 264 264
285 285 284 284 283 283 282 281 280 279 279 278 278 278 279 278 277 276 275 274 273 273 272 270 270 269 268 269 268 268 268 268 267 267 266 265 265 264 264 263 263 262 262 262
284 284 283 283 282 282 281 281 280 280 279 279 278 277 277 276 278 275 274 272 271 272 271 269 268 268 268 268 268 267 267 267 267 266 265 265 264 263 263 263 261 261 260 260
281 281 280 280 281 281 281 280 280 280 279 278 277 276 275 274 273 273 272 271 271 270 270 269 268 267 267 267 266 266 266 266 265 265 264 263 263 262 262 261 260 260 259 259
278 278 278 277 277 277 277 278 278 277 277 277 277 275 274 273 272 272 271 271 270 269 268 268 267 267 266 266 266 266 265 265 264 263 262 262 262 261 261 259 259 258 257 257
Wind_Speed
18 17 18 19 16 18 18 16 15 14 15 11 11 12 5 0 2 4 4 5 5 6 7 9 9 8 7 7 6 5 6 5 4 4 5 6 7 9 10 13 16 22 24 23
16 16 13 16 18 19 19 20 14 16 15 12 12 6 7 3 7 8 9 9 10 10 11 12 12 11 11 10 9 7 6 6 5 4 4 4 6 8 10 13 16 21 20 23
14 7 7 6 17 17 18 17 16 16 16 13 9 11 9 7 9 12 12 12 11 11 11 13 14 13 14 12 11 10 9 8 7 6 6 6 7 8 10 12 15 16 15 14
5 5 7 9 2 17 19 18 16 15 13 11 9 3 5 7 11 13 12 11 11 11 13 14 14 15 15 15 15 14 13 12 11 10 10 10 10 11 11 13 15 15 15 15
5 9 11 4 6 8 12 16 17 19 16 7 7 10 7 7 10 11 11 11 12 13 14 14 15 15 17 18 17 17 17 16 14 13 14 13 12 11 10 10 8 8 7 10
4 8 9 10 13 11 5 13 13 11 14 13 14 9 7 13 12 12 13 13 14 14 15 16 15 15 18 18 19 19 18 17 16 15 14 13 10 7 5 2 1 3 7 10
10 6 7 4 8 11 9 13 1 8 9 15 15 5 20 17 13 14 15 15 15 15 16 16 16 17 20 20 20 18 17 16 14 12 11 8 6 4 2 2 3 4 6 8
7 6 10 12 10 11 12 2 4 7 11 15 10 15 18 17 16 14 16 17 16 17 18 17 17 19 20 19 15 14 14 13 12 10 8 6 5 4 3 3 4 5 7 9
9 7 3 20 14 16 6 5 5 9 11 15 16 17 19 18 17 15 18 18 18 19 20 17 16 17 18 15 13 13 12 12 10 9 8 7 6 5 4 5 6 7 9 11
2 11 10 11 14 6 10 7 6 8 15 19 20 20 19 17 16 14 20 20 21 20 20 18 16 16 16 14 12 12 12 11 9 8 7 6 5 5 5 6 7 8 9 11
10 9 3 10 15 15 10 6 7 11 16 20 21 20 19 18 17 19 21 21 20 19 19 19 17 16 14 12 11 12 11 9 7 6 6 5 5 5 6 6 6 7 8 10
7 10 8 13 7 14 14 14 13 17 18 18 19 21 20 17 21 22 22 22 21 20 20 19 17 15 13 11 10 10 9 8 7 6 5 5 4 2 6 6 5 4 7 8
9 1 6 1 2 11 13 12 14 16 18 22 19 20 22 18 24 24 24 22 22 22 20 19 16 14 11 10 10 10 9 7 6 6 5 4 4 4 6 4 7 5 6 10
3 3 3 8 5 11 8 11 10 12 16 17 21 24 24 23 26 24 23 23 23 22 19 17 15 13 10 10 10 9 9 9 5 4 4 3 3 4 5 6 8 9 9 10
8 3 2 2 8 9 12 12 15 15 16 17 23 23 25 24 23 24 25 25 24 22 19 16 14 12 9 9 9 8 6 5 4 4 3 3 4 4 5 7 8 10 11 10
5 4 5 3 6 9 10 13 13 13 14 15 16 22 25 24 25 25 24 23 23 19 17 17 14 11 8 8 7 7 6 6 4 3 3 4 4 5 6 7 9 10 11 13
5 3 5 9 10 9 10 7 9 13 14 15 19 22 25 25 24 20 17 15 18 17 14 14 14 10 8 6 6 5 4 3 4 3 3 4 5 6 7 8 9 10 11 11
5 1 5 11 13 15 14 12 11 15 15 21 27 27 23 21 19 22 19 18 16 13 11 10 11 10 8 6 5 4 4 3 3 3 3 4 5 6 7 8 10 11 13 13
5 6 8 10 9 12 16 15 18 21 23 26 25 20 23 23 21 20 20 17 13 13 8 8 10 8 7 6 4 3 3 3 2 2 3 4 5 6 7 9 10 12 13 14
10 15 17 16 20 19 15 24 30 23 23 27 27 23 20 19 20 18 14 12 7 9 9 8 7 6 5 4 4 2 3 2 2 2 3 5 6 7 8 9 10 12 13 14
13 16 13 17 18 21 23 27 27 22 20 21 21 19 19 18 17 15 13 10 9 8 8 7 4 3 2 2 2 2 2 2 3 3 4 5 7 8 9 10 11 12 13 14
11 12 16 21 21 22 24 24 24 23 21 22 22 22 21 17 14 13 10 9 8 7 5 4 3 2 1 2 2 3 3 4 4 5 5 6 7 9 10 11 12 13 14 15
20 21 23 23 22 24 26 26 24 23 21 20 19 16 15 12 9 7 7 6 6 5 3 2 1 2 3 3 4 5 5 6 6 7 7 7 8 9 10 12 13 14 14 15
23 24 24 24 25 26 21 23 24 23 24 20 18 14 11 10 10 9 10 7 5 3 2 2 2 4 4 5 6 6 7 8 9 9 9 9 10 10 11 13 14 14 14 15
24 24 23 23 22 19 21 20 20 17 17 15 13 11 9 7 4 6 5 4 2 2 1 3 4 5 5 6 7 8 9 10 10 10 10 11 11 12 13 13 14 15 16 15
24 22 24 24 20 17 16 15 15 13 11 10 8 7 6 6 6 5 4 3 1 2 2 3 4 5 7 8 9 10 11 11 11 11 12 13 13 14 14 15 15 15 15 16
25 22 21 22 21 19 17 15 13 11 10 8 6 4 3 3 3 3 2 1 2 3 4 6 6 7 7 9 10 11 11 11 11 13 14 14 14 13 14 15 15 15 16 16
Wind_Direction
229 240 244 236 237 217 224 237 256 268 251 261 284 276 276 211 220 170 155 136 128 128 120 117 115 117 118 122 136 151 156 164 169 192 209 220 221 220 214 207 199 192 195 189
222 233 237 240 241 246 233 246 258 261 264 263 263 238 247 201 162 142 127 117 107 104 100 92 93 98 104 107 108 111 102 95 106 131 153 165 171 169 171 178 181 190 178 179
233 216 230 254 238 235 233 234 239 245 249 262 241 234 225 185 162 142 131 121 108 97 89 87 86 91 92 94 95 94 95 97 102 109 114 125 138 148 152 169 177 171 163 165
221 179 222 243 242 225 230 239 232 258 263 265 269 150 175 169 155 139 130 121 113 104 95 88 87 87 90 88 87 87 86 86 90 97 104 109 116 125 143 162 174 173 178 191
176 217 256 203 195 188 202 240 235 244 255 221 167 143 146 146 142 129 122 113 106 103 100 95 89 90 90 85 85 84 81 82 84 90 94 98 103 113 126 139 157 177 206 244
173 220 236 249 211 203 219 254 246 244 259 196 171 205 181 157 141 130 124 119 115 107 100 94 92 95 95 92 89 85 86 88 89 91 93 96 102 104 113 128 172 207 234 258
213 233 242 210 164 160 206 257 97 237 238 191 196 235 134 141 137 133 128 124 119 113 107 106 110 108 99 96 91 95 95 92 88 87 83 82 87 93 90 14 345 327 304 296
206 215 244 148 142 205 230 225 213 207 201 196 146 129 138 141 141 139 134 132 125 117 110 109 109 107 101 98 104 104 101 97 92 88 84 81 78 66 37 4 336 320 313 308
209 215 191 183 209 220 231 217 195 197 177 167 153 151 151 148 146 144 140 137 133 124 114 108 107 109 110 112 111 107 103 98 91 84 74 62 52 32 11 355 343 334 327 322
239 228 222 204 219 225 207 199 191 194 173 165 159 157 153 149 147 147 146 143 137 129 119 113 112 112 112 115 117 114 104 95 89 79 73 56 47 26 12 1 349 338 335 330
244 252 255 238 231 220 201 196 187 174 170 173 157 160 155 153 154 152 148 144 140 131 126 122 120 114 114 117 118 111 106 98 88 77 65 59 47 37 30 32 17 353 348 336
229 236 218 260 248 206 199 194 184 168 166 167 165 159 158 156 154 152 148 144 137 133 129 127 123 118 114 111 118 121 112 98 85 76 61 47 29 29 351 357 358 352 356 351
253 204 245 107 338 182 202 190 179 178 170 161 160 158 158 153 155 149 146 144 142 137 133 128 125 118 110 107 106 103 100 96 89 74 62 46 24 2 340 340 349 342 344 342
195 167 230 212 215 161 181 159 156 156 155 156 153 156 153 149 145 148 146 142 138 133 128 127 123 112 105 103 102 99 93 92 85 73 59 42 19 359 343 337 330 329 330 335
188 192 321 86 134 144 142 149 148 149 149 150 154 152 152 151 149 144 141 139 136 132 131 129 119 111 110 106 100 95 90 82 76 72 54 36 9 353 343 334 329 326 327 329
155 127 121 158 136 142 148 155 148 148 149 148 148 151 151 143 139 138 138 138 135 136 133 126 115 111 109 111 111 101 82 78 77 60 35 11 0 351 342 334 329 327 327 332
148 156 159 142 145 145 134 136 138 141 139 140 140 137 133 129 123 115 104 96 104 111 115 116 111 108 101 101 109 103 103 87 71 44 24 4 353 344 336 330 326 323 324 329
302 304 174 162 157 145 128 123 128 137 134 125 118 115 114 112 112 112 113 112 108 101 99 108 109 108 102 94 99 98 93 79 59 35 6 354 346 337 330 325 322 322 323 325
65 102 115 124 143 134 123 116 112 106 111 117 114 108 111 113 118 121 125 122 121 117 121 110 107 102 94 90 89 88 77 64 44 14 360 345 339 332 325 321 320 320 322 323
89 101 94 92 95 99 96 104 101 104 106 107 107 106 104 108 117 119 117 103 102 126 129 120 106 101 104 92 95 76 64 49 26 356 339 339 327 323 319 316 316 318 318 317
86 86 86 88 87 90 95 102 109 108 109 110 111 113 113 111 108 113 115 114 114 114 111 101 94 88 73 66 40 24 14 4 347 334 323 320 319 319 316 315 316 315 314 312
75 78 78 84 85 80 79 87 90 91 92 94 100 105 106 105 102 90 79 116 128 113 103 93 84 97 60 38 338 330 327 325 320 312 308 310 312 313 312 313 312 311 309 309
68 72 72 72 77 80 74 72 75 82 84 88 92 94 97 98 98 108 104 96 110 109 90 72 17 343 329 330 313 314 311 305 301 300 298 299 302 304 307 307 306 306 306 307
73 71 73 75 76 74 74 74 77 78 81 82 83 87 95 97 82 83 103 118 115 96 75 28 329 310 319 300 307 309 305 298 294 293 293 291 296 299 301 302 303 303 304 306
70 72 72 74 76 80 85 88 87 87 88 87 85 81 76 71 96 124 111 106 87 61 337 307 305 307 307 304 303 301 302 300 293 288 291 294 295 295 296 298 299 300 302 306
69 68 65 64 67 69 72 76 77 75 81 84 79 80 83 87 100 105 107 111 95 1 334 321 311 308 306 304 302 302 302 300 298 295 294 295 293 292 294 297 300 303 304 304
62 64 65 62 55 57 61 64 67 62 54 50 64 70 83 89 95 92 87 31 356 347 338 328 318 309 303 299 299 298 298 299 300 300 299 295 290 290 294 298 301 303 304 304